Weather History for Sedalia, MO

Change the Weather History Date:

Thursday, March 7, 2013

  Actual Average Record
Temperature  
Mean Temperature 33 °F 43 °F  
Max Temperature 45 °F 53 °F 80 °F (1974)
Min Temperature 20 °F 33 °F -2 °F (1943)
Degree Days  
Heating Degree Days 32 22  
Month to date heating degree days 237 162  
Since 1 July heating degree days 3675 3779  
Cooling Degree Days 0 0  
Month to date cooling degree days 0 0  
Year to date cooling degree days 1 0  
Moisture  
Dew Point 23 °F    
Average Humidity 69    
Maximum Humidity 84    
Minimum Humidity 53    
Precipitation  
Precipitation 0.00 in 0.09 in 1.07 in (1973)
Month to date precipitation T 0.57  
Year to date precipitation 5.27 4.17  
Sea Level Pressure  
Sea Level Pressure 30.31 in    
Wind  
Wind Speed 8 mph (ESE)    
Max Wind Speed 12 mph    
Max Gust Speed 15 mph    
Visibility 10 miles    
Events      
T = Trace of Precipitation, MM = Missing Value Source: NWS Daily Summary

Daily Weather History Graph

Daily Weather History Graph

Search for Another Location

Airport:

Trip Planner

Search our weather history database for the weather conditions in past years. The results will help you decide how hot, cold, wet, or windy it might be!

Date:

Astronomy

Mar. 07, 2013 Rise Set
Actual Time 6:35 AM CST 6:12 PM CST
Civil Twilight 6:09 AM CST 6:38 PM CST
Nautical Twilight 5:38 AM CST 7:09 PM CST
Astronomical Twilight 5:07 AM CST 7:40 PM CST
Moon 3:33 AM CST (3/7) 2:02 PM CST (3/7)
Length of Visible Light 12h 29m
Length of Day
11h 36m
Waning Crescent, 20% of the Moon is Illuminated
Mar 7
Waning Crescent
Mar 11
New
Mar 19
First Quarter
Mar 27
Full
Apr 2
Last Quarter

Hourly Weather History & Observations

Time (CST) Temp. Windchill Dew Point Humidity Pressure Visibility Wind Dir Wind Speed Gust Speed Precip Events Conditions
12:53 AM 21.0 °F 14.6 °F 17.1 °F 85% 30.35 in 10.0 mi East 4.6 mph - N/A   Clear
1:53 AM 21.9 °F 15.7 °F 17.1 °F 82% 30.36 in 10.0 mi ESE 4.6 mph - N/A   Clear
2:53 AM 21.9 °F 17.2 °F 18.0 °F 85% 30.36 in 10.0 mi East 3.5 mph - N/A   Clear
3:53 AM 21.0 °F 13.4 °F 17.1 °F 85% 30.35 in 10.0 mi ESE 5.8 mph - N/A   Clear
4:53 AM 21.0 °F 12.4 °F 18.0 °F 88% 30.35 in 10.0 mi ESE 6.9 mph - N/A   Clear
5:53 AM 21.0 °F 11.4 °F 17.1 °F 85% 30.35 in 10.0 mi SE 8.1 mph - N/A   Clear
6:53 AM 21.0 °F 13.4 °F 16.0 °F 81% 30.36 in 8.0 mi ESE 5.8 mph - N/A   Clear
7:53 AM 24.1 °F 16.0 °F 18.0 °F 77% 30.37 in 10.0 mi ESE 6.9 mph - N/A   Clear
8:53 AM 28.0 °F 20.8 °F 19.9 °F 72% 30.37 in 10.0 mi ESE 6.9 mph - N/A   Clear
9:53 AM 33.1 °F 26.1 °F 21.9 °F 64% 30.36 in 10.0 mi ESE 8.1 mph - N/A   Clear
10:53 AM 36.0 °F 28.5 °F 24.1 °F 62% 30.35 in 10.0 mi East 10.4 mph - N/A   Clear
11:53 AM 37.9 °F 30.9 °F 25.0 °F 60% 30.34 in 10.0 mi East 10.4 mph - N/A   Clear
12:53 PM 39.0 °F 32.8 °F 27.0 °F 62% 30.32 in 10.0 mi East 9.2 mph - N/A   Clear
1:53 PM 41.0 °F 35.8 °F 27.0 °F 57% 30.27 in 10.0 mi East 8.1 mph - N/A   Clear
2:53 PM 43.0 °F 37.7 °F 27.0 °F 53% 30.26 in 10.0 mi East 9.2 mph - N/A   Clear
3:53 PM 44.1 °F 38.6 °F 28.0 °F 53% 30.25 in 10.0 mi East 10.4 mph - N/A   Clear
4:53 PM 45.0 °F 41.2 °F 28.0 °F 52% 30.22 in 10.0 mi East 6.9 mph - N/A   Clear
5:53 PM 44.1 °F 39.0 °F 28.9 °F 55% 30.22 in 10.0 mi East 9.2 mph - N/A   Clear
6:53 PM 43.0 °F 38.2 °F 28.9 °F 58% 30.23 in 10.0 mi East 8.1 mph - N/A   Clear
7:53 PM 41.0 °F 35.8 °F 28.0 °F 60% 30.25 in 10.0 mi East 8.1 mph - N/A   Clear
8:53 PM 37.9 °F 32.1 °F 28.0 °F 68% 30.25 in 10.0 mi East 8.1 mph - N/A   Clear
9:53 PM 37.0 °F 31.0 °F 28.0 °F 70% 30.26 in 10.0 mi East 8.1 mph - N/A   Clear
10:53 PM 37.0 °F 30.4 °F 26.1 °F 65% 30.26 in 10.0 mi East 9.2 mph - N/A   Clear
11:53 PM 36.0 °F 30.3 °F 26.1 °F 67% 30.27 in 10.0 mi ESE 6.9 mph - N/A   Clear